Regional Weather Roundup
Issued by NWS

Home | Current Version | Previous Version | Text Only | Print | Product List | Glossary Off
Versions: 1 2 3 4 5 6 7 8 9 10 11 12 13 14 15 16 17 18 19 20 21 22 23 24 25 26 27 28 29 30 31 32 33 34 35 36 37 38 39 40 41 42 43 44 45 46 47 48 49 50

000
ASUS45 KTFX 200304
RWRMT
MONTANA HOURLY WEATHER ROUNDUP
NATIONAL WEATHER SERVICE GREAT FALLS MT
904 PM MDT SAT APR 19 2014

NOTE: "FAIR" INDICATES FEW OR NO CLOUDS BELOW 12000 FEET WITH NO
SIGNIFICANT WEATHER AND/OR OBSTRUCTIONS TO VISIBILITY.

* THESE STATIONS ARE NOT UNDER NWS QUALITY CONTROL. THEY DO NOT
   REPORT WEATHER SUCH AS PRECIPITATION OR FOG.

MTZ001>007-043-200400-
WEST OF THE DIVIDE
CITY           SKY/WX    TMP DP  RH WIND       PRES   REMARKS
KALISPELL      CLOUDY    55  27  34 W3        29.80S
MISSOULA       MOCLDY    59  27  29 NW6       29.81R
BUTTE          MOCLDY    54  18  24 CALM      29.88R
MULLAN PASS    LGT SNOW  34  30  85 NW13G32   29.95R VSB 3/4  WCI  25
* ESSEX        N/A       40  28  62 S1         N/A
* LINCOLN      N/A       54  20  26 SW1G10     N/A
* LOOKOUT PASS N/A       43  31  63 SE7        N/A
* POLSON       N/A       55  19  24 W3         N/A
* SEELEY LAKE  N/A       55  23  29 N1G8       N/A
* THOMP F APT  MOCLDY    52  11  19 S11G22     N/A
$$

MTZ008-052>055-200400-
SOUTHWEST MONTANA
CITY           SKY/WX    TMP DP  RH WIND       PRES   REMARKS
BOZEMAN        CLEAR     54  21  27 S13       29.86R
DILLON         MOCLDY    55  16  21 S17       29.86R
W YELLOWSTONE  N/A       40  23  51 N/A        N/A
* THREE FORKS  PTCLDY    61  21  21 S13G20     N/A
* BOULDER HILL N/A       48  14  25 SW1        N/A
* MONIDA PASS  N/A       49  12  22 S12        N/A
* RAYNOLDS PAS N/A       42  26  53 S10        N/A
* WHITEHALL    N/A       59  17  19 SW3G9      N/A
* WISE RIVER   N/A       52  18  26 SW5G12     N/A
$$

MTZ009>010-012-014-046-048-049-054-200400-
EAST SLOPES AND CENTRAL MONTANA
CITY           SKY/WX    TMP DP  RH WIND       PRES   REMARKS
CUT BANK       PTCLDY    45  23  42 W12       29.80R
GREAT FALLS    PTCLDY    52  18  26 CALM      29.80R
HELENA         PTCLDY    55  19  24 W3        29.80R
MALMSTROM AFB  PTCLDY    52  19  27 SE3       29.79R
* CONRAD       PTCLDY    57  16  20 N/A        N/A
* DEARBORN     N/A       52  23  32 S1         N/A
* EAST GLACIER N/A       48  19  32 NW10G22    N/A
* MONARCH      N/A       44   9  24 N/A        N/A
* PENDROY      N/A       48  10  21 W3         N/A
* ROGERS PASS  N/A       42  23  47 NW2        N/A
* SAINT MARY   N/A       48  20  33 S4G11      N/A
* SWEET GRASS  N/A       50  15  25 SW9        N/A
$$

MTZ011-013-016-021-035-040-045-047-050-051-200400-
NORTH CENTRAL MONTANA
CITY           SKY/WX    TMP DP  RH WIND       PRES   REMARKS
HAVRE          PTCLDY    46  27  48 E7        29.80R
LEWISTOWN      CLEAR     46  21  37 SE5       29.85R
* CHESTER      N/A       56  14  19 W1         N/A
* DENTON       N/A       50  13  23 E3         N/A
* GEYSER       N/A       40  19  43 S8         N/A   WCI  35
* JUDITH GAP   N/A       51  11  20 SE6        N/A
* LOMA         N/A       60  14  16 N/A        N/A
$$

MTZ017>020-022>027-061-062-200400-
NORTHEAST MONTANA
CITY           SKY/WX    TMP DP  RH WIND       PRES   REMARKS
GLASGOW        PTCLDY    45  28  51 E9        29.85S
GLENDIVE       CLEAR     48  21  34 S6        29.93R
JORDAN         PTCLDY    54  21  27 E5        29.86R
SIDNEY         CLEAR     43  30  60 NW3       29.93R
WOLF POINT     PTCLDY    45  28  51 NE6       29.88R
* BEAVER HILL  N/A       50  21  32 SE9        N/A
* CIRCLE       N/A       54  28  37 N/A        N/A
* LINDSAY DVD  N/A       47  21  36 SW2        N/A
* NAVAJO       N/A       44  29  56 SW7        N/A
* SACO         N/A       54  26  34 E6         N/A
$$

MTZ028>042-056>058-200400-
SOUTHCENTRAL AND SOUTHEAST MONTANA
CITY           SKY/WX    TMP DP  RH WIND       PRES   REMARKS
BAKER          CLEAR     43  27  53 SE5       29.95R
BILLINGS       MOCLDY    59  25  27 SE8       29.87S
LIVINGSTON     CLEAR     57  18  22 SW15      29.86R
MILES CITY     CLEAR     54  21  27 SE5       29.90S
* LAUREL APT   PTCLDY    57  27  32 N/A        N/A
* ROUNDUP APT  PTCLDY    61  18  19 N/A        N/A
* HYSHAM       N/A       57  19  23 SE6        N/A
* LAME DEER    N/A       54  19  25 SE6        N/A
* REED POINT   N/A       55  26  33 W2         N/A
* ROSCOE HILL  N/A       56   7  14 SW7G12     N/A
$$

REGIONAL REPORTS...DAKOTAS
CITY           SKY/WX    TMP DP  RH WIND       PRES   REMARKS
WILLISTON      CLEAR     37  30  76 CALM      29.91R
DICKINSON      CLEAR     41  27  58 S7        29.94R
CROSBY         CLEAR     37  36  96 E5        29.93R WCI  33
TIOGA          CLEAR     37  32  82 CALM      29.95S
WATFORD CITY   CLEAR     39  32  76 CALM      29.92R
BISMARCK       CLEAR     46 N/A N/A NE8       29.98R
GRAND FORKS    CLEAR     43  36  76 W6        29.99R
FARGO          CLEAR     52  37  57 N13       29.99R
RAPID CITY     PTCLDY    46  30  54 SE6       30.00R
$$

REGIONAL REPORTS...WYOMING/IDAHO/WASHINGTON
CITY           SKY/WX    TMP DP  RH WIND       PRES   REMARKS
GILLETTE       PTCLDY    48  30  50 CALM      29.97R
SHERIDAN       CLEAR     48  34  59 SW6       29.93R
CODY           MOCLDY    55  19  24 SW10      29.93S
YELLOWSTONE LA PTCLDY    32  23  69 CALM      30.09R
SALMON         MOCLDY    59  18  20 CALM      29.85R
MULLAN PASS    LGT SNOW  34  30  85 NW13G32   29.95S VSB 3/4  WCI  25
SPOKANE        MOCLDY    54  34  47 SW18      29.90R

$$




USA.gov is the U.S. government's official web portal to all federal, state and local government web resources and services.